Regional Weather Roundup
Issued by NWS

Home | Current Version | Previous Version | Text Only | Print | Product List | Glossary On
Versions: 1 2 3 4 5 6 7 8 9 10 11 12 13 14 15 16 17 18 19 20 21 22 23 24 25 26 27 28 29 30 31 32 33 34 35 36 37 38 39 40 41 42 43 44 45 46 47 48 49 50
000
ASUS44 KFWD 222015
RWRTX
NORTH TEXAS HOURLY WEATHER ROUNDUP
NATIONAL WEATHER SERVICE FORT WORTH TX
200 PM CST WED NOV 22 2017

NOTE: "FAIR" INDICATES FEW OR NO CLOUDS BELOW 12,000 FEET WITH NO
SIGNIFICANT WEATHER AND/OR OBSTRUCTIONS TO VISIBILITY.

TXZ118-119-222100-
DALLAS/FORT WORTH METROPLEX

CITY           SKY/WX    TMP DP  RH WIND       PRES   REMARKS
DFW AIRPORT    PTSUNNY   56  19  23 N14       30.30F
DALLAS LOVE    PTSUNNY   53  23  31 NW13      30.31F
FTW MEACHAM    MOSUNNY   56  20  24 NW13      30.31F
DAL-EXECUTIVE  MOSUNNY   54  23  30 N14       30.30F
FTW-ALLIANCE   CLOUDY    54  18  24 N12       30.32F
FTW-NAS-JRB    PTSUNNY   54  17  23 N15       30.33F
FTW-SPINKS     SUNNY     54  19  26 NW13      30.33F
ARLINGTON      MOSUNNY   53  20  27 NW14      30.31F
GRAND PRAIRIE  SUNNY     54  19  26 NW9       30.33F
MESQUITE       SUNNY     54  25  32 NW9       30.32F
LANCASTER      MOSUNNY   53  24  32 NW10G16   30.31F
$$

TXZ091>094-102>105-117-120-121-131>134-222100-
NORTH CENTRAL TEXAS

CITY           SKY/WX    TMP DP  RH WIND       PRES   REMARKS
SHRMAN/DENISON SUNNY     52  20  28 NW8       30.32F
GAINESVILLE    MOSUNNY   51  18  27 NW6       30.34F
BOWIE          SUNNY     51  19  27 NW10      30.33F
BRIDGEPORT     MOSUNNY   51  20  30 NW7       30.35F
DECATUR        MOSUNNY   51  18  26 N8        30.31F
DENTON         MOSUNNY   53  21  28 N8        30.33F
MCKINNEY       SUNNY     52  22  30 N9        30.31F
BONHAM         SUNNY     51  21  30 N9        30.31F
GREENVILLE     SUNNY     55  28  35 NW9       30.30F
ROCKWALL       SUNNY     53  25  34 NW10      30.31F
TERRELL        SUNNY     55  27  34 NW10      30.30F
WAXAHACHIE     MOSUNNY   54  26  34 N13       30.32F
CLEBURNE       SUNNY     54  18  24 N15       30.31F
GRANBURY       SUNNY     55  19  24 NW10G16   30.32F
$$

TXZ083>090-098>101-113>116-127>130-139>142-154-155-222100-
WESTERN NORTH TEXAS

CITY           SKY/WX    TMP DP  RH WIND       PRES   REMARKS
WICHITA FALLS  MOSUNNY   51  16  24 N10G18    30.34F
WF-KICKAPOO    SUNNY     51  18  27 N7        30.37F
VERNON         SUNNY     54  -1  10 CALM      30.34F
ABILENE        SUNNY     53  17  24 NW14      30.34F
ABILENE-DYESS  SUNNY     54  21  27 N8        30.33F
GRAHAM           N/A     54  21  27 NW6       30.33F
BRECKENRIDGE   SUNNY     56  14  19 NW10      30.34F HAZE
CISCO          SUNNY     54  12  19 NW10G17   30.34F
EASTLAND       SUNNY     54  17  23 NW13      30.33F
RANGER         SUNNY     53  19  26 N8        30.33F
MINERAL WELLS  SUNNY     54  17  23 N9        30.31F
STEPHENVILLE   SUNNY     55  17  22 N13       30.33F
COMANCHE       SUNNY     56  19  23 NW12G17   30.32F
BROWNWOOD      SUNNY     57  14  18 NW10G16   30.32F
COLEMAN        SUNNY     58  19  22 N12G17    30.33F
$$

TXZ143>147-156>162-174-175-222100-
CENTRAL TEXAS

CITY           SKY/WX    TMP DP  RH WIND       PRES   REMARKS
WACO           SUNNY     58  22  24 NW14      30.29F
WACO-TSTC      SUNNY     59  23  25 N14G23    30.28F
WACO-MCGREGOR  SUNNY     58  21  24 NW10G17   30.29F
HILLSBORO      SUNNY     57  22  26 N13       30.29F
CORSICANA      SUNNY     58  31  35 N12       30.29F
MEXIA          SUNNY     57  31  36 NW13      30.27F
HEARNE         SUNNY     61  33  35 NW13G18   30.26F
CAMERON        SUNNY     60  32  33 N15       30.27S
TEMPLE         SUNNY     61  27  27 NW14      30.27F
KILLEEN        SUNNY     59  18  20 NW16G22   30.26F
KILLEEN-SKYLRK SUNNY     60  22  23 N13       30.27F
FORT HOOD      SUNNY     60  18  19 N12       30.23F
GATESVILLE     SUNNY     59  16  18 N12G18    30.30F
HAMILTON       MOSUNNY   57  18  21 N14G20    30.31S
LAMPASAS       SUNNY     58  19  21 NW13G18   30.27S
$$

TXZ095>097-106>112-122>126-135>138-148>153-164>167-222100-
EAST TEXAS

CITY           SKY/WX    TMP DP  RH WIND       PRES   REMARKS
PARIS          SUNNY     52  27  38 NW10      30.30F
SULPHUR SPRNGS SUNNY     55  29  36 NW7       30.32S
MOUNT PLEASANT SUNNY     58  30  34 N7        30.28F
GILMER         SUNNY     57  33  39 N5        30.26F
MINEOLA        SUNNY     55  30  38 NW8       30.28S
TYLER          SUNNY     59  30  33 N9        30.25F
LONGVIEW       SUNNY     61  38  42 VRB7      30.24F
MARSHALL       SUNNY     57  30  35 NW8       30.26F
ATHENS         SUNNY     54  30  40 NW7       30.26F
PALESTINE      SUNNY     60  33  36 NW6G17    30.27F
JACKSONVILLE   SUNNY     59  37  44 N9        30.25F
HENDERSON      SUNNY     60  37  42 N6        30.25F
CENTER         CLEAR     59  33  37 N6        30.23S
NACOGDOCHES    SUNNY     62  40  44 N9        30.22F
LUFKIN         SUNNY     63  43  48 N8        30.21F
$$

SUPPLEMENTAL OBSERVATIONS (NWS FORT WORTH AREA)

CITY           SKY/WX    TMP DP  RH WIND       PRES   REMARKS
DENISON DAM      N/A     48  21  34 NW13        N/A
CADDO GRASSLND   N/A     55  25  30 N3G12       N/A
PAT MAYSE LAKE   N/A     52  19  28 NW7         N/A
GREENVILLE       N/A     54  28  37 N10         N/A
CEDAR HILL       N/A     55  23  28 N7          N/A
LBJ GRASSLAND    N/A     54  19  26 N8          N/A
POSSUM KINGDOM   N/A     54  21  28 N9          N/A
GRANBURY         N/A     55  19  24 NW12        N/A
COMANCHE         N/A     55  16  21 NW13        N/A
MCGREGOR         N/A     61  21  21 N10         N/A
TEMPLE           N/A     61  27  27 N14         N/A
LAKE LIMESTONE   N/A     61  32  33 N9G17       N/A
ATHENS           N/A     61  32  33 N5          N/A
$$

SUPPLEMENTAL OBSERVATIONS (NWS NORMAN AREA)

CITY           SKY/WX    TMP DP  RH WIND       PRES   REMARKS
GOODLETT         N/A     54  15  21 SE2       30.32F
ODELL            N/A     54  11  17 W2        30.34F
CROWELL          N/A     55  15  20 S1        30.34F
KNOX CITY        N/A     56  14  18 W3        30.35F
SEYMOUR          N/A     54  11  18 NW5       30.35F
MILLERS CREEK    N/A     55  18  22 N7          N/A
$$

SUPPLEMENTAL OBSERVATIONS (NWS SAN ANGELO AREA)

CITY           SKY/WX    TMP DP  RH WIND       PRES   REMARKS
WEINERT          N/A     54  12  19 NW3       30.35F
HASKELL          N/A     54  11  18 NW7       30.35F
THROCKMORTON     N/A     55  15  20 N9        30.35F
STAMFORD         N/A     55  17  21 NW7       30.36F
CLYDE            N/A     54  16  22 NW15      30.34F
HAMBY            N/A     55  18  22 NW9         N/A
IVIE RESERVOIR   N/A     61  21  21 NW13        N/A
COLORADO BEND    N/A     59  14  17 N9          N/A
$$

SUPPLEMENTAL OBSERVATIONS (NWS SHREVEPORT AREA)

CITY           SKY/WX    TMP DP  RH WIND       PRES   REMARKS
CLARKSVILLE      N/A     57  30  35 NW6         N/A
TEXARKANA        N/A     57  28  33 N6          N/A
LINDEN           N/A     61  32  33 N3          N/A
CADDO LAKE       N/A     63  32  31 N5          N/A
GILMER           N/A     61  34  36 N7          N/A
HENDERSON        N/A     61  36  39 N8          N/A
LUFKIN           N/A     64  41  42 MISG        N/A
N SABINE NF      N/A     61  39  44 MISG        N/A
S SABINE NF      N/A     61  41  48 NW6         N/A
$$

SUPPLEMENTAL OBSERVATIONS ARE A COLLECTION OF AUTOMATED INSTRUMENTS
THAT ARE MAINTAINED BY A VARIETY OF FEDERAL AND STATE AGENCIES.
CERTAIN ELEMENTS...SUCH AS HUMIDITY VALUES AND SUSTAINED WIND
SPEEDS...MAY BE APPROXIMATED.





USA.gov is the U.S. government's official web portal to all federal, state and local government web resources and services.